GFSGL_sfc_wetblb_096.txt.gz
Wetbulb
50.54 49.17 49.69 49.62 49.24 48.21 45.87 45.31 44.70 44.25 44.16 43.84 43.60 42.86 42.30 41.63 40.82 39.31 38.88 39.22 38.56 37.95 38.12 38.17 38.14 38.28 37.30 37.45 37.50 37.13 36.28 35.64 34.52 37.48 36.62 37.89 37.46 37.38 39.27 40.04 42.26 40.44 40.99
49.53 47.89 47.70 46.92 45.30 44.31 43.74 43.58 44.07 43.16 43.40 42.76 42.32 41.58 40.93 40.64 39.88 38.91 38.55 38.72 37.93 37.34 37.59 37.61 37.60 41.21 36.86 36.87 36.52 35.80 35.89 36.11 35.89 34.64 37.06 36.60 36.37 37.36 37.82 38.17 41.95 44.17 41.18
47.70 46.36 44.54 43.89 43.27 42.47 42.25 42.38 42.38 41.55 41.13 41.30 41.15 40.28 40.35 40.41 39.77 39.39 38.97 38.52 37.98 37.68 37.52 37.08 37.14 37.22 36.14 36.14 36.11 35.62 35.76 38.61 35.84 35.65 36.00 36.29 36.18 37.08 37.65 39.00 40.30 42.69 44.58
44.72 43.68 42.82 42.33 42.23 41.79 41.62 41.42 41.28 40.81 39.74 39.35 39.52 40.12 40.60 40.27 40.32 39.94 39.44 38.10 37.37 38.07 38.85 39.10 38.66 37.94 36.51 35.74 36.46 35.96 37.83 36.04 36.37 37.04 36.39 36.69 37.03 38.78 37.96 38.22 38.04 39.10 40.31
43.34 42.67 41.71 41.95 41.75 41.38 40.84 40.77 40.73 40.16 39.91 39.84 39.68 39.91 39.97 40.22 41.46 38.64 38.81 37.59 36.99 37.39 38.71 38.86 39.13 40.84 45.17 44.47 42.11 39.48 38.18 39.01 39.59 39.28 38.61 38.20 38.01 37.91 37.46 38.91 39.20 40.13 40.84
41.94 41.67 42.21 41.99 41.66 40.93 40.70 40.50 39.98 39.74 39.29 39.41 39.11 39.21 38.54 41.68 45.72 46.15 44.29 37.98 39.75 38.39 35.98 37.07 37.60 41.72 41.16 44.30 44.99 45.27 43.96 39.85 39.24 39.14 38.62 38.18 38.38 38.46 40.11 39.08 38.03 36.75 34.92
41.13 41.43 41.59 41.35 40.81 40.50 40.56 39.97 39.15 38.49 38.54 38.11 37.95 38.27 37.80 38.02 45.19 45.56 45.60 41.23 36.63 35.16 35.80 36.60 37.60 39.68 40.93 39.01 42.15 44.09 44.06 44.62 44.51 41.15 39.48 39.96 38.70 39.15 39.64 38.02 38.27 38.48 37.27
40.14 40.49 40.82 40.66 40.25 40.05 39.34 38.57 37.97 37.83 37.41 37.19 37.41 37.79 37.09 38.93 44.69 45.09 44.32 36.31 35.64 36.61 38.10 37.65 37.17 37.91 38.55 39.66 39.19 38.78 38.70 39.29 40.19 41.02 39.77 39.46 39.45 40.42 40.64 40.97 40.94 41.08 41.67
39.89 39.65 40.16 40.16 39.18 39.05 38.43 37.78 37.81 37.22 36.84 36.87 37.59 36.77 35.98 35.91 43.19 42.95 41.35 37.58 38.14 38.15 39.00 37.98 37.59 37.76 42.04 44.11 40.84 39.80 38.23 39.30 43.54 45.26 45.60 45.89 46.41 46.60 45.55 43.18 40.69 39.35 37.47
39.85 40.10 40.29 40.02 39.14 38.39 37.74 37.35 37.60 37.12 37.48 38.02 37.04 36.48 39.76 34.75 40.85 42.25 40.74 38.25 37.13 36.64 37.92 38.43 41.85 40.64 43.76 43.96 40.60 39.41 36.94 37.69 40.09 39.40 39.70 42.14 42.87 42.02 44.84 41.77 39.72 36.52 35.95
40.83 40.57 40.32 39.63 38.76 38.28 37.29 36.98 36.31 36.30 36.42 35.37 36.43 35.09 34.06 35.07 34.50 41.13 41.83 38.74 37.52 36.31 36.50 37.09 38.11 42.63 43.31 43.71 43.75 40.38 40.21 40.70 40.93 39.91 40.09 40.09 39.21 39.62 39.88 40.46 40.65 38.45 36.87
40.52 40.26 39.35 38.41 39.43 39.47 36.10 36.00 36.00 35.03 34.62 34.77 31.96 32.11 33.74 33.97 39.78 40.34 41.22 41.04 40.59 38.02 38.36 38.12 38.68 42.45 43.49 43.27 42.34 42.87 43.25 42.23 38.60 38.00 36.88 36.21 36.05 36.52 38.10 39.53 39.91 39.08 39.20
39.21 38.13 37.50 37.94 37.76 36.98 35.42 34.39 34.12 33.93 31.53 31.27 32.02 31.46 32.68 35.72 36.72 39.16 39.72 40.29 40.60 38.32 38.80 40.07 41.97 41.75 41.60 39.99 40.56 41.30 41.06 36.38 34.78 33.32 32.91 33.59 34.91 37.53 36.20 35.68 37.50 38.63 38.07
37.57 36.75 36.72 35.88 36.27 35.14 35.37 34.46 31.86 30.93 30.65 32.28 32.47 32.57 33.41 35.05 34.57 35.14 35.68 36.52 39.20 38.89 39.17 39.07 39.10 39.40 39.22 38.07 36.98 36.30 35.24 34.89 34.19 33.88 33.91 34.15 33.33 33.69 33.57 34.92 34.44 35.15 35.04
36.42 36.05 35.26 35.45 34.24 32.81 32.85 31.97 32.60 32.02 34.55 34.27 33.75 34.12 33.52 32.58 34.52 37.80 37.85 36.55 36.69 37.77 39.57 35.88 34.25 34.05 33.45 33.06 33.22 34.45 34.92 34.16 34.17 33.56 34.01 33.41 32.87 33.67 33.69 34.37 33.76 33.65 32.69
35.16 34.76 34.37 33.57 32.57 31.73 31.06 31.11 38.16 38.23 38.18 37.66 37.59 36.10 35.25 37.36 38.14 38.79 39.04 38.95 39.44 40.13 35.60 33.34 31.97 32.37 31.98 32.53 32.81 32.68 33.02 33.62 33.39 33.01 33.56 33.97 33.51 32.65 32.38 32.83 33.12 32.99 32.39
33.76 34.18 33.46 33.66 31.71 30.52 30.50 29.98 28.42 33.12 36.33 36.50 36.69 36.93 36.78 36.77 37.59 37.74 38.23 38.68 38.06 37.00 31.80 31.41 31.27 31.86 32.45 32.84 32.85 32.91 31.98 32.98 33.33 32.36 32.93 33.23 33.84 33.77 32.78 32.46 32.58 32.88 33.04
36.29 38.55 30.62 30.17 30.35 30.21 29.93 29.80 31.35 30.84 29.86 30.55 34.36 35.13 35.97 36.55 36.94 37.27 37.93 36.38 31.59 32.80 32.19 31.79 31.78 32.66 32.86 32.68 33.04 33.11 32.94 32.39 32.08 32.95 33.12 33.24 33.69 33.66 32.59 32.19 32.57 32.46 33.29
35.31 31.58 30.57 30.20 30.29 32.08 30.18 29.18 31.26 31.41 30.65 29.89 31.00 32.79 33.68 35.31 36.13 36.85 36.54 31.11 30.91 31.93 32.26 32.22 32.89 32.91 32.99 33.29 33.44 33.51 32.82 32.02 32.83 33.34 33.69 33.75 33.99 33.77 33.22 33.62 33.43 35.07 35.77
32.45 35.70 34.32 29.85 29.70 30.21 29.53 31.15 30.41 29.36 28.93 29.15 28.90 29.46 30.78 32.04 30.85 30.04 31.32 31.96 32.34 32.72 32.28 32.06 32.74 33.12 33.00 33.07 33.00 33.63 32.61 31.98 32.11 32.70 32.86 33.21 33.49 33.19 32.46 32.72 33.29 33.55 34.67
30.70 31.04 34.37 29.27 29.83 29.77 31.86 30.47 29.41 28.50 28.76 28.53 29.33 31.14 34.31 31.06 29.64 29.62 30.76 31.59 31.76 32.70 32.26 32.39 32.45 32.82 33.29 33.07 32.69 32.73 32.38 32.43 32.54 32.76 33.21 33.13 33.24 32.37 33.47 34.00 34.33 34.58 35.11
29.73 29.03 29.38 29.54 30.66 32.04 30.77 29.16 28.29 28.28 28.75 28.83 29.36 30.41 33.90 30.34 29.96 30.58 31.23 31.92 32.81 33.41 33.84 33.64 33.31 33.36 33.43 33.14 32.89 32.34 32.02 32.18 32.76 33.04 33.37 33.19 33.14 32.84 33.11 33.51 33.30 34.15 35.14
28.93 28.73 28.88 29.32 31.06 30.84 28.89 28.60 28.13 28.67 29.10 29.43 28.98 29.42 30.04 30.51 30.97 31.36 31.93 32.41 32.80 33.37 34.18 34.15 33.72 33.56 34.50 34.23 34.47 33.76 32.47 32.42 33.04 33.83 33.50 33.22 32.97 32.89 32.57 33.16 33.27 33.70 34.83
28.87 28.44 28.47 28.83 29.31 28.78 28.07 27.96 28.48 29.58 29.89 29.64 28.91 29.51 29.30 29.89 30.68 31.23 31.80 32.40 32.84 33.36 33.97 33.96 33.95 33.71 33.87 33.97 34.28 34.56 34.20 34.51 34.49 34.60 34.86 33.67 33.26 33.44 32.71 33.06 33.59 34.18 35.47
28.78 28.07 28.26 27.75 27.08 28.11 27.96 26.92 27.44 28.37 29.90 29.83 29.91 30.47 30.41 30.97 31.21 31.54 32.09 32.53 32.77 32.94 33.16 33.41 33.36 33.22 33.24 33.39 33.91 34.61 34.79 35.23 35.18 35.38 35.12 34.68 34.09 33.57 32.81 32.77 33.75 35.09 35.99
28.59 28.29 28.15 27.41 28.52 28.35 27.76 26.70 27.56 29.83 30.10 30.41 30.95 31.09 31.24 31.18 31.38 31.88 32.43 33.03 32.95 32.92 33.06 33.33 33.14 32.90 33.29 33.84 34.35 34.65 35.16 35.66 35.50 36.13 35.89 35.24 34.02 33.48 33.69 34.00 34.55 35.57 36.79

GFSGL_sfc_wetblb_102.txt.gz
Wetbulb
50.38 49.32 48.34 47.57 47.06 46.12 45.68 45.17 43.20 44.43 42.97 43.12 41.58 40.45 39.89 38.69 37.61 36.52 36.04 36.18 35.60 34.68 34.46 34.57 34.94 34.49 34.39 34.35 33.93 33.54 33.19 32.21 30.97 33.11 33.59 34.65 33.52 34.87 37.16 37.13 38.69 37.64 38.20
47.78 46.97 46.15 45.71 43.72 44.87 43.65 41.89 43.84 41.51 40.67 40.32 39.92 39.19 38.62 38.17 37.02 36.69 36.52 36.13 35.43 34.90 34.85 34.46 34.73 38.00 33.51 33.43 33.07 32.70 32.64 33.10 31.77 32.08 32.36 32.74 32.64 34.06 34.44 34.30 38.12 40.94 38.53
45.25 44.00 42.64 42.27 42.30 39.99 41.01 40.57 39.40 38.91 38.48 38.71 38.58 38.16 37.92 37.69 37.03 36.58 36.64 36.34 35.58 34.93 34.74 34.32 34.84 34.99 34.10 33.83 33.45 32.94 33.28 36.01 32.85 30.51 31.41 32.30 33.01 33.54 34.53 35.32 36.40 37.01 40.62
42.52 41.13 39.11 39.14 39.89 38.11 37.61 37.47 37.42 36.90 36.54 36.35 36.91 37.61 38.09 37.87 37.72 37.33 36.80 35.67 35.03 35.45 36.00 36.11 36.00 35.78 34.43 33.56 34.34 33.75 33.80 32.02 33.39 36.08 37.09 35.48 34.31 35.50 36.39 35.86 35.96 36.48 37.42
39.52 38.62 37.47 37.64 37.86 37.85 37.61 37.48 37.60 37.48 37.13 37.21 36.99 36.94 36.65 37.24 38.72 36.68 36.71 35.92 35.13 34.87 35.98 36.60 37.68 38.81 43.64 42.42 39.31 35.84 35.09 34.43 35.30 34.23 36.34 37.50 37.68 37.59 37.45 38.22 38.08 38.93 39.63
38.21 37.98 38.59 38.80 38.51 37.73 37.48 37.02 36.75 36.33 35.88 36.00 35.74 35.92 35.53 38.93 44.28 45.69 44.58 37.21 37.03 36.57 36.33 37.85 36.06 39.78 38.53 42.46 43.35 43.79 42.81 39.46 38.28 38.62 38.54 37.70 37.52 38.32 38.94 38.69 38.09 37.12 34.47
37.98 37.92 38.15 38.19 37.81 37.22 36.93 36.67 35.80 34.87 34.58 34.48 34.79 35.15 34.87 35.13 43.99 45.33 45.50 39.10 36.84 34.60 34.46 33.62 34.36 37.33 39.22 35.62 39.99 42.99 42.55 44.00 43.96 40.34 39.07 38.78 37.15 36.98 37.03 36.97 36.88 37.23 37.03
36.42 36.74 37.21 37.16 36.64 36.47 36.10 35.33 34.73 34.31 34.29 34.21 34.56 34.61 33.96 35.96 43.66 44.15 44.29 34.40 33.49 33.68 33.73 33.99 34.31 36.00 35.82 37.56 37.21 36.80 37.05 38.36 40.23 40.48 39.31 38.43 37.68 38.38 37.77 39.75 39.74 39.74 40.09
36.12 36.17 36.50 36.80 36.29 35.96 35.38 34.75 34.73 34.40 34.24 34.13 34.77 34.02 32.75 32.95 41.34 42.42 40.39 34.41 34.17 33.96 35.90 36.71 37.01 34.99 40.30 43.06 39.49 39.26 39.86 39.47 43.11 44.46 45.28 45.33 45.68 45.76 44.72 41.88 39.63 38.85 36.83
36.42 36.68 36.67 36.56 36.08 35.40 34.62 34.19 34.18 33.81 34.36 34.83 33.80 31.33 35.85 31.48 38.52 41.14 40.22 35.19 32.66 34.59 35.55 36.11 40.09 39.44 42.57 43.08 39.78 38.83 35.68 38.77 40.03 39.17 39.78 41.21 42.48 41.77 43.19 40.14 38.70 36.05 36.30
37.65 37.62 36.97 36.09 35.48 34.79 33.73 33.27 32.88 32.78 32.27 29.99 30.15 30.34 31.19 32.43 32.70 39.45 40.84 36.09 35.21 35.52 34.89 35.57 37.50 40.65 41.72 42.68 42.94 41.01 39.40 39.06 40.36 39.41 36.99 35.70 36.46 37.28 38.36 39.33 39.36 38.16 35.45
36.88 36.31 35.41 34.15 36.01 35.52 32.32 31.65 31.32 29.85 28.28 28.06 29.14 29.76 30.85 31.07 37.03 38.30 39.93 39.84 39.16 36.07 35.74 36.72 35.33 40.48 41.84 42.55 41.97 42.18 41.74 41.06 37.26 35.92 35.16 33.96 32.50 32.68 33.45 34.41 35.57 38.22 38.94
34.32 33.12 32.93 33.67 33.06 32.21 30.49 29.34 28.97 28.36 28.34 29.39 29.84 29.30 30.18 32.01 32.04 38.67 39.47 39.16 39.78 37.13 37.75 38.50 40.65 41.14 41.73 40.57 39.98 40.39 40.36 34.72 32.93 31.44 30.52 29.99 30.06 32.08 31.73 32.53 34.29 34.83 35.15
32.21 31.90 32.09 31.76 31.95 30.03 30.33 30.10 28.82 28.98 29.75 30.58 31.33 31.76 31.00 31.51 31.79 33.00 34.12 35.78 38.58 37.84 38.49 36.19 39.38 38.53 37.66 36.93 35.62 35.49 34.78 34.44 33.43 32.86 33.00 32.35 31.87 30.88 30.41 32.30 31.99 32.32 33.79
31.38 31.65 31.56 31.03 28.76 28.50 29.24 29.37 31.05 30.34 32.32 31.15 30.40 32.75 32.27 31.77 32.00 36.74 37.07 35.78 36.19 37.19 37.91 36.97 31.45 31.24 31.14 32.15 33.24 34.11 34.94 35.07 33.75 33.29 31.91 30.54 30.69 30.80 31.50 33.15 34.10 33.68 31.79
31.59 31.51 31.09 28.36 27.80 28.06 27.42 27.92 34.65 35.88 36.66 36.74 36.73 35.28 34.18 36.23 37.61 37.82 37.65 37.89 38.24 38.88 35.95 29.62 28.57 28.96 29.42 30.67 31.56 31.86 32.96 34.36 33.97 33.22 31.96 30.71 30.46 30.11 30.64 32.63 34.16 32.81 31.31
30.66 30.45 28.12 29.15 27.59 27.00 27.14 27.47 26.13 29.60 34.92 34.98 35.20 35.27 35.49 35.63 36.05 36.42 37.31 37.65 37.30 35.83 28.25 28.04 27.95 29.28 30.34 30.89 31.41 32.48 32.28 32.94 34.68 33.18 32.41 30.90 30.38 30.65 31.57 31.63 33.40 33.18 32.15
30.94 34.63 27.59 27.27 27.14 27.26 27.85 27.37 27.24 27.54 26.61 27.00 31.60 33.15 34.31 35.12 35.60 36.30 36.77 35.42 28.66 29.83 28.62 28.21 29.87 31.22 31.96 31.11 31.26 31.51 32.33 32.47 33.08 32.92 32.11 30.84 30.48 30.76 30.96 30.50 32.20 32.41 32.14
29.41 28.55 27.70 27.20 27.25 30.09 28.36 28.08 27.47 26.50 26.33 26.20 26.81 29.91 31.84 34.32 36.04 35.96 35.05 28.46 27.22 28.40 29.94 30.55 30.87 31.14 31.71 31.73 31.45 31.78 32.16 32.14 32.82 32.24 32.73 32.12 30.97 31.34 31.24 31.82 32.78 33.63 33.21
28.00 33.48 32.30 27.12 27.72 28.50 27.85 26.35 25.57 25.62 25.60 25.45 25.93 26.68 28.37 31.57 29.70 28.66 29.20 29.21 29.89 30.23 30.69 30.81 31.48 32.08 32.18 32.41 32.36 32.26 32.08 32.14 32.23 32.16 31.69 31.25 31.56 32.35 32.10 32.24 32.34 31.65 31.67
26.86 27.35 32.30 28.04 28.23 27.38 26.57 25.26 25.30 25.50 25.48 25.85 26.68 28.90 34.40 31.25 28.65 28.19 28.77 30.23 30.19 30.66 30.97 31.56 31.75 32.13 32.63 32.74 32.68 32.54 32.25 32.28 32.38 32.42 31.90 31.42 31.46 31.71 32.92 33.16 32.81 32.72 32.55
26.28 26.60 27.71 28.18 27.90 27.48 26.15 25.83 25.61 25.37 25.71 26.28 27.44 28.94 33.08 29.56 29.28 29.96 30.31 30.83 31.41 32.00 32.59 32.35 32.11 32.39 32.54 32.39 32.60 32.31 32.21 32.17 32.48 32.79 32.28 31.96 31.77 32.36 32.89 32.79 32.47 32.32 32.20
26.43 26.75 27.33 26.88 27.98 28.10 25.28 25.36 25.29 25.32 26.62 28.50 28.64 29.32 29.83 29.98 30.49 30.84 31.08 31.34 31.76 32.17 33.08 33.13 32.75 32.78 33.72 33.55 33.74 33.53 32.51 32.57 33.33 34.04 33.66 32.25 31.84 32.24 32.78 32.32 32.16 31.86 31.88
26.75 26.84 26.62 25.99 27.01 25.95 25.91 28.56 26.25 28.11 29.38 28.28 28.07 29.07 29.58 30.36 30.68 31.09 31.66 32.05 32.45 33.20 33.91 33.77 33.66 33.26 33.26 33.32 33.70 34.18 34.45 34.63 34.99 34.67 34.77 33.32 32.84 33.00 32.87 32.46 32.51 32.44 32.25
26.80 26.65 26.35 25.26 25.14 23.79 26.61 29.19 28.82 28.56 28.42 28.73 28.93 29.54 30.04 30.71 31.07 31.31 32.11 33.06 33.26 33.14 33.26 33.56 33.83 33.95 34.06 33.61 33.87 34.35 34.68 34.86 34.71 35.15 35.04 34.53 33.34 32.88 32.73 32.56 32.63 32.63 32.68
26.98 26.92 26.70 26.17 25.10 25.07 26.05 29.42 29.11 27.61 28.07 29.35 29.39 30.07 30.94 31.26 31.55 32.41 32.72 32.96 32.87 33.05 33.51 34.23 34.71 35.44 35.40 35.15 35.28 34.86 34.74 34.68 34.51 35.08 34.97 34.25 33.45 33.28 33.46 33.10 33.03 32.95 33.11

GFSGL_sfc_wetblb_105.txt.gz
Wetbulb
49.18 48.24 47.43 46.87 46.72 46.19 45.74 44.82 43.19 43.01 41.98 42.79 41.52 40.75 39.57 37.95 37.04 35.99 35.41 35.41 35.22 34.50 33.93 34.07 34.27 33.63 33.35 33.04 32.54 32.20 31.81 31.12 29.15 31.57 32.56 33.81 32.55 33.68 35.91 35.85 37.51 36.17 37.07
46.86 46.08 45.18 45.02 44.27 42.28 41.73 43.29 41.58 40.53 40.72 41.08 39.51 38.80 37.79 37.07 35.93 35.73 35.95 35.76 35.07 34.49 34.31 33.70 34.11 37.11 32.80 32.92 32.77 32.31 31.87 31.98 30.90 30.96 31.23 31.90 31.94 33.10 33.25 33.13 36.84 39.52 37.18
44.85 43.92 43.14 41.69 40.18 40.96 39.35 39.47 39.16 38.56 37.84 37.90 37.72 37.27 36.86 36.74 36.23 35.89 35.99 35.66 34.91 34.45 34.23 33.65 34.04 34.09 33.37 33.51 33.24 32.49 32.50 35.00 31.83 29.95 30.61 31.48 31.94 32.59 33.17 34.43 35.30 36.13 39.38
41.42 40.01 39.66 37.51 37.12 36.92 36.79 36.99 36.45 36.00 35.75 35.66 36.15 36.75 37.04 36.66 36.48 36.19 35.65 34.56 34.15 34.66 34.92 34.69 34.79 34.80 34.38 33.89 33.69 33.20 33.84 31.65 31.31 30.75 31.11 32.65 33.47 35.65 34.63 35.26 35.54 35.38 36.62
38.81 37.83 36.23 36.50 36.72 36.81 36.61 36.38 36.32 36.29 35.84 36.02 36.02 36.06 35.81 36.34 37.66 35.33 35.48 34.72 34.50 34.37 34.83 35.17 35.90 38.15 42.88 42.20 39.90 35.08 34.01 34.43 32.89 32.52 35.66 37.02 36.51 37.32 37.59 36.49 36.98 38.13 38.21
36.97 36.63 37.47 37.57 37.25 36.49 36.11 35.78 35.72 35.35 35.05 35.16 34.85 34.99 34.60 38.25 43.89 45.35 43.84 37.10 36.77 35.89 35.08 35.73 35.90 40.64 39.11 42.44 42.95 43.42 42.13 38.27 37.63 37.91 38.07 37.81 36.97 37.48 38.55 37.86 37.79 36.11 34.60
36.65 36.68 37.04 37.10 36.59 35.94 35.87 35.78 35.04 34.14 33.85 33.87 34.16 34.52 34.43 34.56 43.40 45.02 45.24 38.59 36.32 34.48 32.96 32.75 33.41 36.63 39.11 35.21 39.44 42.31 41.81 43.34 43.29 39.80 37.59 38.51 38.44 38.65 38.82 36.80 35.43 37.39 36.15
35.34 35.67 36.11 35.99 35.68 35.56 35.31 34.63 33.91 33.69 33.72 33.66 33.90 33.84 33.01 34.91 42.82 44.01 44.01 34.01 33.02 33.16 33.18 33.19 32.84 33.16 33.91 36.58 35.67 35.13 36.08 36.64 37.55 38.81 38.87 39.35 39.77 39.48 37.27 37.58 37.03 39.02 40.09
35.10 35.01 35.43 35.75 35.26 35.10 34.43 33.68 33.59 33.44 33.00 32.84 33.49 32.89 31.47 31.36 40.77 42.06 40.60 34.37 33.55 33.13 33.91 34.81 35.10 34.78 39.94 42.33 38.75 38.44 38.87 39.49 43.07 44.76 44.45 45.02 45.55 45.79 44.90 41.03 38.96 38.00 35.27
35.33 35.55 35.54 35.49 35.04 34.45 33.86 33.27 33.18 32.51 33.26 33.53 32.26 29.71 34.97 30.27 37.42 40.11 39.03 34.69 32.73 32.77 33.93 35.07 40.02 38.72 42.08 42.44 39.42 38.14 36.48 36.49 39.42 39.28 39.59 41.03 42.73 41.28 43.65 39.50 37.01 34.54 34.30
36.32 36.20 35.74 34.65 34.02 33.34 32.50 32.12 31.74 31.59 30.61 28.36 29.27 29.64 30.07 31.31 32.22 39.19 40.02 35.37 34.77 35.62 35.47 35.45 35.54 40.63 41.21 41.49 41.72 38.75 39.59 41.31 39.93 39.82 38.74 37.89 37.14 37.08 36.89 37.00 36.82 36.13 35.24
35.04 34.41 33.23 32.58 34.33 33.79 30.86 29.96 29.58 28.07 27.24 27.22 28.14 29.25 30.53 30.58 36.65 37.92 39.51 39.88 39.70 36.23 35.34 35.11 36.48 40.49 41.32 42.46 42.54 42.92 42.68 41.69 36.11 34.48 34.47 34.44 34.79 34.01 33.74 33.88 33.93 34.23 35.66
32.73 31.66 31.89 32.43 31.12 30.21 28.74 27.97 27.59 27.87 28.24 29.07 29.55 28.83 29.06 30.93 31.19 38.18 38.84 39.03 39.63 37.22 37.46 38.21 40.45 40.80 40.90 39.22 38.62 39.78 40.22 34.31 32.91 31.71 31.53 32.13 32.66 33.00 32.03 31.58 32.71 33.19 33.47
31.22 30.95 31.05 30.11 29.83 28.45 29.30 29.41 28.33 28.40 28.79 29.95 29.72 29.59 29.63 31.47 32.82 31.51 32.50 32.81 37.68 37.68 37.99 35.63 38.06 40.03 39.73 37.05 34.77 34.13 33.86 33.86 33.81 32.89 32.91 34.70 34.59 32.89 30.94 31.11 30.06 31.24 30.64
30.45 30.73 30.11 28.53 27.17 27.14 27.91 27.77 30.21 29.73 30.96 30.76 30.08 31.57 32.10 30.63 31.34 36.00 36.46 35.53 35.43 36.53 37.49 36.34 35.36 32.69 30.69 29.74 30.04 31.55 33.23 33.69 33.55 33.84 33.03 32.89 32.73 32.15 31.17 31.61 31.06 31.62 32.14
30.55 29.89 29.64 27.30 26.63 26.66 26.64 27.25 33.96 35.62 36.26 36.33 36.19 34.83 33.01 35.58 36.91 37.18 37.52 37.67 38.19 38.77 34.59 31.04 28.57 27.80 27.50 28.40 30.15 30.29 31.34 32.05 32.85 33.56 33.30 32.73 32.08 31.50 30.56 30.75 31.32 32.27 32.25
29.19 28.87 27.23 28.20 26.78 26.43 27.02 27.22 25.83 29.19 33.88 33.64 34.12 34.77 35.28 35.48 36.09 36.68 37.50 38.11 37.93 35.85 27.72 27.49 26.70 27.85 29.09 29.93 30.37 30.50 29.69 31.89 32.80 32.92 32.74 32.69 33.10 31.83 31.30 30.22 31.10 32.46 32.81
28.79 34.13 27.02 26.71 26.29 26.81 27.44 27.04 26.82 26.14 24.95 25.71 30.69 32.82 34.21 35.13 35.80 36.47 36.66 35.05 28.29 29.36 27.67 26.88 28.43 29.92 29.71 30.20 31.13 31.09 30.80 31.35 31.73 32.12 32.63 32.68 32.28 31.08 30.57 30.61 30.06 29.78 31.37
28.04 27.71 26.96 26.16 27.05 29.55 27.71 26.44 25.74 25.41 25.15 25.36 26.22 29.16 31.36 34.12 35.91 35.91 34.81 27.99 27.16 28.23 28.83 29.45 30.47 30.83 31.10 31.27 31.55 32.02 31.85 31.48 31.75 31.69 32.26 32.39 32.63 32.01 30.83 30.43 30.97 32.95 33.35
27.12 32.74 30.87 26.95 27.79 27.12 26.39 25.30 24.94 24.94 24.93 25.22 25.53 26.15 28.53 32.22 30.09 28.79 29.59 29.40 29.23 29.79 30.21 30.34 30.84 31.26 31.47 31.91 32.15 32.34 32.09 32.04 31.95 31.86 31.83 32.23 32.40 31.48 30.26 30.89 32.02 31.64 31.61
26.27 27.19 31.89 27.99 27.12 26.59 25.75 24.93 24.98 24.84 24.84 25.46 26.92 29.12 33.90 31.07 28.74 28.73 29.36 30.11 30.14 30.32 30.34 30.59 30.96 31.32 31.92 32.16 32.19 32.01 31.94 32.05 32.35 32.42 32.37 32.72 32.60 31.06 31.32 31.99 32.43 32.87 32.53
26.01 26.55 28.06 27.38 27.45 27.10 26.43 25.73 24.93 24.88 25.44 27.60 28.76 29.59 33.04 29.51 29.65 29.95 30.27 30.67 31.31 31.95 32.52 32.23 31.95 32.37 32.67 32.43 32.42 32.01 31.79 31.87 32.29 32.91 32.71 33.54 32.96 31.75 31.42 32.04 32.33 32.51 32.24
26.09 27.09 26.58 26.09 27.50 28.68 25.33 26.60 27.81 25.71 26.77 27.70 27.88 28.34 29.11 29.46 29.79 30.10 30.67 31.60 32.37 32.82 33.54 33.55 33.11 33.05 33.98 34.01 33.92 33.11 32.04 32.23 33.38 34.31 33.51 33.65 32.99 31.91 31.89 31.65 31.92 31.90 31.73
26.68 26.89 26.18 25.69 26.69 26.19 24.64 28.52 27.03 28.15 27.92 28.57 28.85 28.99 29.44 29.90 30.59 31.45 32.16 32.92 33.47 33.87 34.22 34.17 34.09 33.88 34.30 34.54 34.05 34.54 34.71 34.50 35.24 34.93 34.64 34.12 33.22 32.79 32.75 32.12 32.20 32.13 32.14
26.83 26.55 26.13 25.25 25.17 23.24 24.43 28.36 28.14 28.24 28.51 29.31 29.27 29.35 30.00 30.76 31.04 31.95 32.88 33.44 33.77 33.70 34.10 34.57 34.97 35.34 35.87 35.25 34.96 34.71 34.52 34.83 34.66 34.91 34.59 34.26 33.41 32.83 32.38 32.21 32.18 32.21 32.43
26.80 26.74 26.48 26.13 25.05 24.66 27.45 28.21 28.58 28.51 28.78 29.14 28.76 29.80 30.70 30.66 31.42 32.47 32.95 33.29 33.45 33.97 34.31 34.91 35.26 35.73 36.44 36.44 36.18 36.55 36.45 36.01 35.00 35.15 34.58 33.88 32.57 32.13 32.79 32.81 32.90 32.89 33.05

GFSGL_sfc_wetblb_111.txt.gz
Wetbulb
53.40 55.16 54.36 52.82 51.49 50.51 49.66 48.84 48.25 47.66 47.63 45.78 44.79 44.35 44.58 44.38 44.53 44.54 43.90 42.98 42.79 42.65 42.20 42.16 41.91 42.12 42.46 42.16 41.83 41.67 40.92 40.11 37.92 40.62 41.09 42.73 42.51 42.68 43.26 44.55 44.70 44.24 44.47
46.55 46.48 45.68 44.94 44.04 43.28 43.09 43.84 44.95 43.51 43.97 43.79 44.06 43.62 43.10 42.85 43.04 43.12 42.36 42.15 42.22 41.70 41.97 41.80 42.02 41.21 41.71 41.78 41.27 41.22 41.07 41.11 39.34 38.06 40.83 40.72 40.99 42.28 42.75 42.42 42.39 43.63 44.45
43.97 43.02 42.53 42.37 42.12 41.71 41.75 42.01 42.83 43.26 43.36 43.02 43.02 42.43 41.76 41.60 41.70 41.99 42.31 41.92 41.95 42.09 42.09 41.58 41.95 41.28 41.40 41.36 41.34 41.35 41.62 41.05 40.38 38.39 38.88 40.93 40.41 41.41 41.13 42.35 42.46 43.51 43.85
42.24 40.95 40.28 40.48 40.41 40.58 40.87 40.64 40.57 41.27 41.22 41.36 41.48 41.28 41.18 41.38 41.51 41.58 41.56 41.62 41.32 41.23 41.12 41.20 41.60 41.17 41.51 41.80 41.15 41.43 41.42 40.52 40.58 39.29 38.88 38.83 39.71 41.07 41.37 39.91 40.09 43.00 42.35
40.98 40.46 39.81 40.45 40.95 41.11 41.12 41.14 41.38 41.41 41.09 41.40 41.59 41.35 41.35 41.68 42.05 42.50 42.07 41.61 41.51 41.72 41.87 41.64 41.75 42.14 43.08 43.31 41.04 41.79 40.00 38.44 39.29 39.64 38.82 38.88 38.79 38.90 38.86 39.92 38.94 39.65 41.63
40.81 39.96 40.61 40.78 40.79 40.48 40.60 40.66 40.86 40.59 40.61 41.11 40.81 40.71 41.09 41.47 44.04 45.23 45.34 43.81 43.46 42.49 42.21 42.77 42.56 42.86 43.82 45.64 46.01 45.76 44.26 41.50 40.54 40.19 39.50 38.15 38.13 40.57 40.98 39.68 38.73 37.65 36.15
40.55 40.47 40.40 40.61 40.22 40.22 40.51 40.56 40.20 39.95 40.47 40.16 39.97 40.01 40.08 40.46 42.96 44.48 44.66 42.66 40.73 40.15 39.66 39.58 39.16 39.74 41.18 40.93 41.58 42.66 42.65 43.19 43.06 41.55 39.22 39.52 39.70 40.50 41.62 40.49 40.29 39.25 37.69
39.73 39.69 40.03 40.12 39.62 39.68 39.84 39.64 39.58 40.05 39.68 39.88 39.76 39.36 39.17 39.42 41.85 43.20 43.41 41.16 40.01 39.53 39.32 39.25 39.09 39.23 39.83 39.70 39.69 39.75 40.04 40.68 41.23 40.82 40.61 40.92 41.84 42.20 41.99 41.87 41.56 40.62 39.87
38.94 39.16 39.48 39.95 39.58 39.61 39.21 39.02 39.04 39.54 39.19 38.65 38.46 37.95 37.05 37.24 39.32 40.97 41.01 39.63 38.54 38.38 38.89 39.17 38.98 38.86 40.55 41.81 39.23 38.28 39.24 40.06 42.95 44.18 44.49 44.55 45.31 45.46 45.13 42.82 38.94 38.10 36.61
38.81 38.51 38.99 39.29 39.04 38.44 38.20 38.02 37.88 37.72 37.37 36.83 35.65 35.32 35.57 35.97 37.52 39.89 39.54 38.34 37.12 37.28 38.18 38.49 40.05 40.28 41.35 41.71 39.13 38.42 37.26 38.44 40.04 40.36 40.82 41.79 43.09 42.86 44.10 43.50 41.63 38.16 36.97
38.58 38.13 37.68 37.73 37.14 36.98 36.77 36.63 35.93 35.21 34.50 34.16 34.29 35.41 35.58 36.22 37.06 38.96 39.71 37.59 36.93 36.63 36.68 36.99 38.37 40.16 40.73 41.19 41.50 39.84 40.20 41.57 41.11 39.41 39.45 39.59 39.83 41.07 41.69 42.20 41.81 39.44 36.83
37.27 36.26 35.69 35.60 35.76 35.02 34.63 34.09 33.73 33.85 33.82 34.08 33.91 34.48 35.68 35.92 36.78 37.63 39.24 39.08 38.80 36.47 36.10 37.44 38.11 39.84 40.93 42.15 41.91 42.13 42.56 41.08 36.46 36.28 35.64 35.37 36.04 36.81 37.97 39.34 40.05 39.66 39.69
36.11 35.51 35.16 33.99 33.76 33.54 33.60 33.50 34.12 33.73 33.56 32.93 33.31 33.20 33.51 34.67 35.48 36.99 37.28 38.17 39.13 37.72 38.27 38.67 39.46 39.62 40.20 40.12 39.55 39.70 40.04 36.36 35.30 33.43 33.14 33.89 35.25 36.47 36.52 36.75 37.39 38.13 38.10
34.85 34.13 33.60 34.74 32.50 32.25 32.93 33.14 33.43 33.32 32.94 33.10 32.71 32.23 32.49 32.96 33.68 34.72 35.47 36.58 37.93 37.87 38.46 38.26 39.08 39.88 38.25 37.45 35.64 35.24 34.67 34.44 33.69 33.09 33.38 34.68 35.96 35.08 34.24 34.98 34.50 35.31 34.54
34.20 32.95 32.35 32.03 31.40 31.59 32.02 32.64 33.86 34.38 34.42 32.89 32.52 32.47 31.59 31.64 33.34 36.82 36.91 36.43 37.34 38.27 38.45 35.30 34.03 33.02 32.21 32.37 32.65 33.08 33.70 33.75 33.21 33.65 32.51 32.67 33.42 34.08 33.60 34.24 34.61 34.08 32.42
33.16 32.88 33.14 31.77 31.22 31.39 31.64 31.87 33.12 33.74 34.49 34.64 35.18 34.75 34.57 35.78 37.18 37.51 38.17 38.69 38.57 37.74 34.49 31.80 30.82 31.06 30.74 31.01 31.25 31.63 32.57 33.05 33.37 33.72 33.30 32.80 32.50 32.50 32.56 33.55 33.87 33.27 31.67
33.38 31.86 32.51 31.10 31.04 31.39 31.05 29.07 28.10 30.73 32.39 33.06 34.39 35.24 35.50 35.80 36.62 37.45 38.04 37.22 36.13 35.30 31.58 31.02 30.57 30.80 30.82 30.83 30.54 30.53 30.05 31.54 33.51 33.17 32.88 32.71 32.54 32.39 32.63 32.49 33.67 33.41 31.97
33.45 33.34 31.10 30.67 31.70 31.19 29.78 29.10 29.18 28.53 27.93 29.06 31.60 33.56 34.77 35.83 36.70 36.64 36.04 34.56 31.66 31.88 30.61 29.63 29.61 30.50 31.07 31.26 31.68 31.62 32.04 32.48 32.20 32.62 32.76 32.70 32.94 32.54 31.51 32.10 32.66 32.24 31.90
31.55 31.48 30.56 31.46 32.15 30.65 29.84 29.55 29.28 28.82 28.51 28.59 29.95 31.82 33.82 36.06 35.41 34.80 34.50 31.44 30.28 30.90 31.79 31.82 32.27 32.31 32.60 32.92 32.91 33.10 33.31 33.02 33.15 33.32 33.46 33.06 33.00 33.14 32.17 32.48 33.01 33.73 33.36
32.66 33.52 31.31 31.20 30.33 29.59 29.93 29.33 28.86 28.53 28.60 28.50 28.43 28.98 31.26 33.80 30.97 30.76 32.01 31.84 31.43 31.70 32.08 32.17 32.83 33.02 33.02 33.10 33.07 33.09 32.72 32.67 33.07 33.24 33.33 33.69 33.32 33.51 32.37 32.26 32.64 32.01 31.58
30.98 33.01 32.36 30.21 29.67 30.07 30.29 29.30 29.08 28.94 28.47 28.09 28.79 30.41 33.97 30.89 29.42 30.80 31.48 31.87 32.01 32.47 32.82 33.02 33.18 33.54 33.82 33.84 33.62 33.09 32.98 32.62 33.01 33.50 32.74 33.51 33.29 32.59 33.42 33.49 33.34 32.91 31.98
30.34 30.89 30.09 29.75 30.16 30.60 30.50 29.81 29.65 28.88 28.31 28.94 29.47 30.49 32.58 30.59 30.56 31.50 32.03 32.64 33.57 34.23 34.77 34.34 34.11 34.26 34.39 34.44 34.44 33.90 33.52 32.67 33.26 33.98 33.95 34.15 34.00 33.81 33.74 33.55 32.99 32.29 31.86
30.41 30.02 29.17 29.58 30.28 29.88 29.13 29.58 29.41 28.76 28.94 29.68 29.94 29.65 30.42 30.38 30.83 31.79 32.44 33.52 34.10 34.32 35.28 35.19 34.72 34.33 35.55 36.00 36.40 35.45 33.97 33.84 34.06 34.39 33.84 33.55 33.91 34.00 33.97 33.21 32.07 31.96 31.50
30.15 29.50 29.11 29.40 30.42 29.12 28.88 29.23 29.41 29.38 28.93 29.28 30.28 30.18 30.33 30.15 31.11 31.92 32.66 33.70 34.14 34.70 35.29 35.38 35.51 35.38 35.95 36.40 37.51 37.68 36.51 35.78 35.72 35.38 35.18 34.18 33.23 34.03 33.44 33.00 33.12 32.83 32.44
29.96 29.29 29.20 29.12 29.10 28.58 28.50 29.35 28.87 28.68 28.62 29.17 30.02 30.14 30.47 31.06 31.09 31.96 33.01 33.98 34.37 34.44 34.66 35.42 36.01 36.32 36.61 37.06 38.05 38.60 38.75 38.60 37.48 36.32 35.37 34.78 33.97 33.45 33.33 32.91 32.88 32.93 33.14
29.40 29.27 29.27 29.43 29.13 28.84 28.61 28.85 28.46 28.57 28.63 28.86 29.98 30.48 30.58 30.78 31.23 32.23 33.02 33.44 33.59 34.10 34.92 35.69 36.19 36.75 37.65 38.38 38.88 38.31 38.37 38.61 39.06 39.20 37.92 35.07 33.64 33.35 33.32 32.90 32.91 32.85 32.63

GFSGL_sfc_wetblb_114.txt.gz
Wetbulb
55.40 55.07 53.70 52.28 50.68 50.87 50.76 50.74 51.44 52.04 50.89 49.89 47.98 46.62 45.69 45.98 46.78 47.26 48.63 48.28 47.65 46.80 46.43 46.82 46.22 46.41 46.60 46.54 46.49 45.82 44.86 44.20 41.13 43.17 44.98 45.98 45.40 45.22 45.83 46.72 46.83 46.87 46.71
48.83 47.33 46.13 45.87 45.46 44.83 44.89 46.25 46.95 46.33 48.21 48.01 47.35 47.29 46.83 47.40 47.83 48.18 46.85 46.06 45.75 45.55 45.90 45.04 44.79 44.55 44.83 45.72 45.35 44.56 44.21 44.53 42.61 40.85 43.52 43.99 44.41 45.34 44.95 44.44 44.67 45.44 45.44
47.17 45.85 45.48 44.87 44.73 44.68 45.45 45.96 46.73 47.36 46.99 46.88 47.30 46.64 46.37 46.16 46.14 46.50 46.45 45.91 45.70 45.19 44.40 43.98 44.35 45.10 44.53 44.98 44.82 44.24 44.56 44.18 44.13 42.22 41.41 43.79 44.13 44.50 43.47 44.23 44.26 45.10 46.02
46.06 45.97 44.98 44.57 45.11 45.21 44.81 45.22 45.63 46.31 45.96 45.81 45.71 45.55 45.43 45.33 45.28 45.43 45.54 45.31 45.12 45.27 45.46 45.20 45.07 44.79 44.46 44.79 44.70 44.52 44.26 43.77 43.60 41.48 39.33 39.90 42.43 43.78 43.51 41.24 40.84 42.97 42.30
44.44 44.93 44.61 45.21 45.78 45.74 45.09 45.25 45.51 45.85 45.88 45.86 45.51 45.39 45.41 45.31 45.61 46.36 46.12 45.51 45.41 45.26 45.60 45.54 45.61 45.89 46.13 46.03 44.88 44.35 44.19 42.48 40.91 39.00 38.94 39.20 40.88 40.85 39.13 41.66 41.19 42.13 41.80
45.78 45.13 45.70 45.85 45.50 45.45 45.38 45.14 45.23 45.12 45.17 45.08 44.53 44.20 44.12 44.18 44.37 44.97 45.38 45.73 45.78 45.29 44.72 45.21 45.54 45.58 45.33 46.06 46.40 46.70 45.68 41.15 40.33 40.53 40.64 39.80 40.54 39.71 41.18 40.47 40.27 39.20 36.61
45.29 45.41 45.50 45.44 44.94 44.88 45.02 44.65 44.31 44.10 44.62 44.07 43.77 43.62 43.40 43.94 43.83 44.57 44.55 45.06 44.10 43.92 43.40 43.14 42.79 43.06 43.19 42.82 43.78 44.08 44.02 44.51 44.15 42.07 39.51 39.73 38.91 40.60 40.81 40.09 40.22 40.07 39.08
44.71 44.63 45.09 44.84 44.30 44.49 44.25 43.95 43.88 44.19 43.81 43.44 43.44 43.42 43.06 43.01 41.68 42.71 42.99 43.30 42.98 42.56 42.21 41.76 41.23 41.08 41.50 41.23 41.13 40.86 41.22 41.83 41.50 41.14 40.73 41.31 41.82 42.41 42.48 42.46 41.46 42.12 43.71
44.05 44.18 44.37 44.34 43.57 43.58 43.45 43.49 43.69 43.63 43.37 42.79 42.51 41.71 40.98 41.28 40.06 40.81 41.16 40.93 40.50 40.50 40.95 41.08 40.84 40.54 41.68 42.32 40.01 39.82 40.06 40.81 43.51 44.66 44.84 45.10 45.42 45.48 44.88 42.91 40.75 38.72 36.31
43.70 43.39 43.65 43.57 43.34 42.87 43.16 42.91 43.24 43.00 41.68 41.14 40.14 40.24 39.07 39.42 39.68 39.81 40.18 39.74 39.05 39.44 40.32 39.88 40.36 40.35 41.55 42.01 40.08 39.36 38.06 39.15 40.30 40.91 41.49 42.56 43.40 42.86 44.36 43.54 42.65 38.25 38.42
43.49 43.13 42.90 43.08 42.43 42.45 42.58 41.82 41.18 40.26 39.69 39.24 38.79 39.31 39.03 39.10 39.24 39.24 39.78 38.26 37.39 36.93 36.79 37.58 38.61 40.33 40.89 41.34 41.50 40.55 40.46 42.40 41.52 40.99 40.30 40.63 40.22 40.84 41.30 42.62 42.76 41.67 39.22
42.79 41.97 41.63 41.44 40.61 40.65 40.25 40.15 39.41 38.73 37.72 37.41 37.23 37.74 39.08 39.07 38.22 38.21 38.78 38.80 39.03 36.58 36.47 37.58 38.45 40.15 40.86 41.50 41.27 41.55 42.02 41.62 39.07 37.74 37.44 37.48 37.45 38.36 39.82 40.41 40.55 40.77 41.62
41.75 41.01 40.25 39.84 39.88 39.63 38.99 38.27 38.06 37.52 37.02 36.63 36.52 36.11 36.34 37.31 37.68 37.09 37.87 38.60 39.36 38.00 38.55 39.24 40.22 41.12 41.48 41.07 40.75 40.55 40.22 37.98 36.93 35.78 35.44 36.23 37.11 37.83 38.18 37.61 38.00 38.52 38.50
40.50 40.05 39.76 39.16 38.03 38.00 38.12 38.11 37.60 37.12 36.08 35.81 35.35 34.85 35.34 36.03 36.69 37.03 37.02 37.81 38.88 38.62 39.39 38.66 38.20 38.41 38.40 38.34 37.50 37.34 36.72 36.50 35.37 34.69 34.81 35.69 36.56 35.95 35.31 36.26 35.21 35.49 35.42
40.02 38.77 38.16 37.54 37.19 37.18 37.27 37.32 36.60 37.14 35.50 34.65 35.21 35.56 34.82 33.75 34.95 37.76 38.02 37.21 38.31 38.51 38.35 37.07 35.77 35.84 35.11 34.89 34.82 35.00 35.30 35.05 34.25 34.53 34.45 34.09 34.02 34.48 34.80 35.98 35.42 34.48 33.04
38.62 38.08 37.49 36.70 36.64 37.05 36.87 36.39 33.89 33.69 34.36 34.73 35.42 35.44 35.33 36.28 37.81 38.23 38.98 38.79 38.03 37.41 35.28 33.37 33.07 33.07 32.33 32.44 32.32 32.37 33.38 34.03 34.13 34.24 34.10 33.81 33.38 33.32 33.42 34.59 34.96 33.88 32.54
38.22 37.10 36.66 35.35 35.96 36.32 35.59 34.65 33.33 35.36 33.73 33.17 34.01 34.91 35.26 36.14 37.42 37.94 37.36 37.10 36.28 35.43 32.69 31.42 30.81 30.89 31.05 31.71 31.86 32.23 32.28 33.07 33.87 33.79 33.55 33.48 33.41 33.65 33.13 33.22 33.76 34.06 33.35
37.53 35.11 36.13 35.70 36.14 35.74 34.86 34.75 34.33 33.04 32.60 34.00 34.24 34.18 35.25 36.53 37.36 36.04 35.86 35.44 33.50 33.89 32.74 32.72 33.08 33.93 33.82 33.49 33.88 34.04 34.42 34.52 34.57 34.52 34.35 34.10 34.26 33.78 32.99 32.88 33.09 33.07 33.28
36.95 36.02 35.75 36.11 35.96 34.30 34.82 34.89 34.28 33.28 32.90 33.20 33.39 33.58 34.45 36.34 35.79 35.36 35.14 32.78 31.94 32.22 33.63 33.89 34.04 34.06 34.24 34.38 34.24 34.17 34.13 33.99 34.51 34.74 34.84 34.55 34.66 34.73 33.42 33.68 34.12 33.78 34.18
36.10 34.78 34.70 35.19 34.23 34.23 34.68 34.39 33.56 33.03 32.79 30.88 30.56 30.84 32.78 34.04 31.86 31.91 32.54 33.15 32.80 33.08 33.84 33.83 34.46 34.88 34.39 34.16 34.29 34.11 33.90 34.27 33.55 33.23 33.89 34.56 35.04 34.57 33.47 33.27 33.34 32.77 32.99
37.04 35.75 34.37 34.08 34.27 34.45 34.75 34.14 33.70 33.06 31.63 31.41 31.19 32.20 34.14 31.75 30.88 31.43 32.32 33.38 33.89 33.97 34.36 34.61 34.56 34.37 34.77 34.68 34.25 34.39 34.37 35.09 34.50 34.20 34.13 34.58 34.74 33.49 34.07 33.93 33.65 33.51 33.66
35.79 35.66 33.94 33.80 33.99 34.13 34.55 34.14 33.77 31.67 31.98 31.57 31.35 32.05 33.05 32.27 31.65 32.07 33.63 34.10 34.70 35.20 35.64 35.30 34.78 35.02 35.08 34.55 35.02 34.67 34.27 33.83 35.20 35.04 34.74 34.46 34.55 34.52 34.24 34.03 33.47 33.70 33.38
35.06 34.18 33.34 33.61 34.07 32.17 33.50 33.79 33.68 33.04 32.49 31.68 31.25 30.84 31.04 31.09 31.25 32.33 33.48 34.16 34.62 34.88 35.55 35.72 35.53 35.58 36.58 37.03 37.68 37.67 36.34 35.32 35.25 35.24 34.67 34.72 34.91 34.79 34.46 33.89 33.64 33.23 32.37
34.67 33.82 33.44 33.58 33.89 33.63 33.47 33.53 33.46 31.45 30.55 31.22 30.97 30.77 30.74 30.99 32.03 33.19 33.93 34.27 34.67 35.27 35.83 35.96 36.31 36.53 37.21 37.55 38.46 38.90 39.03 38.56 38.56 36.45 35.45 34.28 34.21 34.52 34.67 34.34 34.33 34.06 33.85
34.32 33.62 33.42 33.44 33.13 33.48 33.00 33.11 32.01 30.30 30.10 30.73 30.72 30.63 30.72 31.04 31.71 32.98 33.87 34.27 34.27 34.48 35.05 35.91 36.67 37.18 37.52 38.08 38.93 39.43 38.50 37.68 38.43 38.44 38.76 36.23 34.86 34.48 34.00 33.90 34.05 34.42 34.54
33.86 33.52 33.43 33.60 33.36 33.28 32.85 31.99 30.20 29.59 29.53 29.89 31.25 30.70 31.43 31.23 31.46 32.83 33.92 33.70 33.42 33.97 34.78 35.67 36.34 37.19 37.81 38.23 38.57 37.94 37.53 38.06 38.45 38.65 38.90 38.52 37.32 35.41 34.73 34.18 34.19 33.76 33.80

GFSGL_sfc_wetblb_117.txt.gz
Wetbulb
52.35 53.79 52.16 50.62 50.52 50.57 50.03 51.28 52.75 52.57 52.32 50.78 50.29 49.43 48.54 48.15 47.44 46.53 46.20 45.92 46.33 46.86 47.00 48.33 47.67 47.61 47.16 47.85 47.62 46.57 45.27 44.83 41.50 43.61 45.27 45.94 45.50 45.85 46.33 46.82 47.00 45.91 46.16
47.60 46.77 46.76 46.81 45.86 45.57 46.10 46.61 47.84 49.53 50.11 49.29 48.72 48.03 47.01 46.85 46.29 46.78 47.44 47.93 47.97 47.19 46.85 46.15 45.38 45.30 45.54 46.15 46.07 45.15 44.75 44.88 42.91 41.03 43.56 44.17 44.05 45.45 45.35 44.96 44.70 45.01 45.02
46.44 45.45 45.73 45.79 46.38 46.14 46.02 46.68 47.08 47.78 48.14 49.31 49.01 48.12 47.95 48.06 47.99 47.65 47.24 46.61 46.42 46.19 45.63 44.41 44.26 44.37 44.04 44.68 45.44 44.88 44.73 44.39 44.35 42.55 41.91 44.05 44.21 44.48 43.67 44.50 44.07 44.60 45.26
46.58 45.90 45.59 45.72 45.60 46.35 46.83 47.15 47.07 47.41 46.82 46.62 46.51 46.32 46.25 46.04 45.97 45.72 45.62 45.48 45.40 45.30 45.21 45.31 44.97 44.62 44.32 44.66 44.37 44.54 44.40 43.94 43.82 42.49 42.20 42.00 41.95 42.87 42.72 41.99 41.17 42.71 41.96
46.21 45.48 45.66 46.06 46.49 46.41 46.26 46.29 46.40 46.37 46.26 46.29 45.80 45.78 45.95 45.52 46.09 46.18 46.38 45.99 45.42 45.18 45.72 45.73 45.90 46.39 46.79 46.55 45.08 44.71 44.27 43.21 42.39 41.40 39.73 39.40 39.79 40.18 39.98 41.33 40.04 40.45 42.49
46.16 45.55 46.12 45.88 45.98 45.71 45.71 45.41 45.36 45.26 45.09 44.92 44.38 44.18 44.26 44.27 44.85 45.08 44.86 44.41 44.60 44.37 44.24 44.56 44.77 45.62 45.28 46.17 46.15 46.42 45.57 43.20 42.08 41.38 40.87 39.78 40.33 40.98 41.52 40.61 39.70 37.98 36.67
46.11 46.20 46.03 45.72 45.14 45.04 45.01 44.74 44.46 44.43 44.66 44.16 43.89 44.01 43.51 44.26 43.84 44.03 44.10 43.58 43.27 43.47 43.12 42.76 42.44 42.91 43.75 42.49 44.02 44.91 44.71 45.35 45.06 42.27 39.77 39.53 39.17 40.40 40.58 39.47 39.59 39.47 38.74
45.83 45.66 45.67 45.02 44.34 44.44 44.49 44.25 44.18 44.48 43.95 43.57 43.24 43.15 42.82 42.74 42.38 42.17 42.49 41.74 41.75 41.85 41.97 41.70 41.14 40.61 41.30 41.20 40.64 40.27 40.66 41.27 41.70 41.49 41.03 40.55 40.62 41.60 40.90 40.87 40.67 41.59 42.23
45.07 44.70 44.68 44.40 43.79 44.01 43.57 43.62 43.71 43.51 43.24 42.63 42.35 41.59 40.70 40.79 41.09 40.73 40.78 39.63 39.42 39.64 40.63 41.21 41.00 40.28 42.10 42.81 39.78 39.37 40.04 40.81 43.76 45.05 44.84 44.93 45.47 45.79 44.74 42.15 40.30 39.21 37.54
44.48 43.98 44.00 43.99 43.59 43.15 43.42 42.96 43.05 42.67 41.49 41.24 40.39 40.67 40.49 39.50 40.96 40.87 40.34 39.30 38.43 38.83 39.31 39.36 40.46 40.35 42.12 42.17 38.91 38.73 37.87 38.73 39.79 40.54 41.41 42.48 43.51 43.41 44.80 42.79 41.21 38.76 37.75
44.48 44.00 43.75 43.91 43.15 43.08 42.68 42.01 41.30 40.32 40.09 39.53 39.14 39.66 39.81 40.23 39.80 40.02 39.95 38.06 37.27 36.88 36.86 37.10 37.99 40.44 41.13 41.57 41.70 39.16 39.47 41.32 41.16 40.21 39.14 39.84 40.72 41.52 41.19 41.96 42.01 40.88 38.79
43.76 43.03 42.77 42.66 41.54 41.72 40.97 40.37 39.60 38.96 38.24 38.30 38.16 38.33 39.39 39.38 39.74 39.08 38.94 39.11 39.39 36.92 36.63 37.71 38.38 40.44 41.73 42.64 42.38 42.80 43.06 42.13 39.52 38.34 37.45 37.11 37.65 38.06 38.92 39.56 40.04 40.57 40.60
42.76 42.02 41.74 41.32 40.56 39.94 38.81 38.38 38.36 38.34 37.60 37.01 36.73 36.35 36.84 38.10 38.43 39.23 38.88 39.86 40.28 38.22 38.67 39.61 41.42 41.53 40.75 40.21 40.64 40.89 40.72 37.65 36.43 35.16 34.76 35.36 36.57 37.54 37.99 37.90 38.40 38.85 38.51
41.92 41.34 40.99 39.91 38.69 38.34 38.70 38.53 37.86 37.38 36.38 35.86 35.57 35.47 36.20 36.91 37.05 37.02 37.13 38.30 39.45 39.06 39.80 39.40 39.43 39.35 39.63 38.36 37.61 37.13 36.16 35.62 35.16 34.91 34.93 35.77 36.72 36.48 35.50 36.64 35.81 36.27 35.38
41.41 40.55 39.78 39.06 37.62 37.55 37.78 37.48 36.74 37.12 35.42 34.22 35.00 35.37 34.74 34.02 34.94 38.04 38.28 37.86 38.50 38.36 38.15 36.70 35.17 35.20 34.43 34.10 34.45 34.66 34.92 34.78 34.13 35.00 34.73 34.60 34.81 35.11 34.80 36.08 35.73 35.35 33.73
40.25 39.41 38.88 37.65 37.29 37.31 36.84 36.54 35.22 34.54 34.22 34.53 35.12 35.30 35.39 36.52 38.13 38.84 39.28 38.46 38.33 37.62 35.02 33.12 32.48 32.05 31.55 31.85 31.79 32.03 32.90 33.63 33.35 33.62 33.84 33.95 33.81 33.63 33.73 34.51 34.96 34.56 33.36
39.84 39.09 37.49 36.90 36.65 36.33 35.79 34.99 34.28 35.51 35.84 34.98 34.30 34.99 35.45 36.52 38.12 38.22 37.36 37.09 37.22 36.31 32.27 31.37 31.66 32.29 32.72 33.22 33.47 33.70 33.55 34.94 35.79 35.16 34.23 33.75 33.78 33.75 33.65 33.52 33.69 33.87 33.39
39.88 38.88 37.57 36.90 36.74 35.98 35.33 35.04 34.98 33.93 33.18 34.44 35.82 34.96 35.31 36.33 37.75 36.39 36.40 35.44 32.69 33.44 33.05 34.07 34.07 34.25 34.34 34.35 34.50 34.27 34.30 34.55 34.45 34.32 34.18 34.50 34.64 34.13 33.55 33.19 33.53 33.14 33.06
37.77 36.57 37.30 37.08 36.74 35.23 34.97 34.86 34.83 34.17 33.68 33.93 33.68 34.30 34.76 36.07 36.28 35.76 35.41 32.90 32.44 32.80 34.05 34.15 34.77 34.80 34.65 34.60 34.64 34.70 34.67 33.98 34.86 34.25 33.55 33.93 34.15 34.25 32.94 33.61 33.72 34.19 34.15
37.91 37.60 36.86 36.54 34.99 34.51 34.60 34.42 34.21 33.85 33.72 32.99 32.31 31.96 32.80 34.20 31.71 31.79 32.84 33.04 33.03 34.09 34.22 34.29 34.94 35.14 34.68 34.74 34.75 34.75 34.27 34.23 34.42 34.43 34.07 33.96 34.00 33.62 33.70 33.72 33.67 33.11 33.08
36.99 35.51 36.05 35.58 34.79 34.74 34.85 34.17 34.14 33.90 32.86 32.97 32.66 32.84 34.14 32.31 31.09 31.60 32.65 33.77 34.32 34.38 34.35 34.51 34.70 34.92 35.16 35.18 34.78 34.78 34.83 34.82 34.88 34.43 34.78 34.78 34.60 33.76 33.91 34.40 34.14 33.86 33.52
37.61 35.96 34.93 34.72 34.89 34.23 34.75 34.14 33.91 32.98 32.76 32.79 32.32 32.38 33.21 31.98 31.58 31.55 32.73 34.35 34.92 35.30 35.54 34.95 34.83 35.39 35.78 35.74 35.79 34.90 35.13 35.51 35.93 35.70 34.98 34.42 34.82 34.91 34.69 34.19 33.60 33.49 33.26
37.00 35.86 34.40 34.72 34.91 33.62 33.05 33.84 33.58 33.38 33.16 32.71 32.19 31.08 31.21 31.07 30.83 31.65 33.18 34.71 34.96 35.05 35.80 35.64 35.38 35.63 35.99 37.32 38.05 37.80 36.70 36.74 37.24 37.22 36.34 34.68 33.87 33.83 34.06 33.55 34.09 33.63 33.11
36.09 35.01 34.37 34.51 34.46 34.03 33.74 33.64 33.40 31.69 31.25 32.10 31.88 31.12 30.95 31.11 30.96 32.23 33.75 35.12 34.93 34.99 35.49 35.69 35.88 35.97 36.55 37.21 38.21 38.82 38.94 38.84 37.60 37.24 37.56 36.91 35.98 35.11 34.47 33.79 33.62 34.07 34.22
35.86 34.89 34.62 34.39 33.75 33.68 33.08 32.99 32.59 31.81 31.21 31.30 31.59 31.13 31.03 31.45 31.28 31.64 33.39 34.85 34.86 34.24 34.43 35.24 35.72 35.95 36.26 36.93 37.66 38.21 38.50 37.24 37.39 37.85 37.88 37.50 36.53 35.85 35.82 34.67 34.12 33.94 34.45
35.50 34.85 34.81 34.80 34.29 33.86 33.25 32.40 31.36 30.90 29.89 31.20 31.39 31.12 31.34 31.26 31.48 32.40 33.21 33.71 33.34 34.04 34.03 34.81 35.28 35.54 36.18 36.74 37.30 37.40 37.32 37.66 37.72 38.18 37.86 37.43 36.73 36.70 37.18 36.59 35.62 34.38 34.23

GFSGL_sfc_wetblb_120.txt.gz
Wetbulb
51.82 50.33 49.70 50.17 51.11 51.54 51.61 52.32 52.22 52.34 50.95 49.65 49.14 48.98 48.66 48.44 48.04 46.82 46.04 45.59 45.34 45.42 44.51 44.79 44.68 44.39 43.59 43.69 43.08 42.37 41.23 40.88 39.00 40.97 41.34 42.12 40.93 40.35 40.53 40.58 41.87 39.80 40.45
47.33 47.67 47.12 46.30 46.62 46.69 46.85 48.32 50.79 50.21 50.47 50.06 49.90 49.48 49.22 49.28 48.71 47.73 46.32 46.26 45.26 44.90 44.56 43.47 42.72 44.28 41.63 41.78 41.53 40.50 40.05 40.53 38.98 35.59 36.82 37.42 37.93 38.39 38.02 37.89 41.46 43.74 40.15
46.14 45.57 45.53 45.33 44.86 44.33 44.47 45.82 47.14 49.36 48.96 48.68 47.93 46.19 46.64 46.85 45.89 45.35 44.58 43.45 41.76 40.38 40.26 40.20 41.68 41.79 39.85 40.09 40.52 38.65 38.18 40.72 37.48 36.09 35.58 37.38 37.65 37.29 36.96 37.77 39.29 39.27 43.32
45.34 44.28 43.04 42.77 43.56 44.45 43.70 44.54 43.12 43.16 43.36 42.32 42.57 42.85 42.94 42.79 43.43 42.88 42.16 40.74 40.31 40.66 40.87 40.27 39.74 39.12 37.72 37.23 39.65 38.55 39.63 37.76 37.36 38.25 36.17 36.08 36.85 37.42 38.49 38.28 36.80 40.04 39.59
43.09 42.58 41.60 41.74 42.11 42.56 42.41 42.62 42.13 41.58 41.46 41.64 41.33 41.58 41.29 42.59 44.11 41.75 41.36 40.30 39.89 40.11 41.00 41.56 41.53 43.98 47.36 45.07 42.15 39.56 39.04 37.75 37.61 36.93 36.15 36.68 38.41 38.67 37.93 38.58 38.61 36.03 36.48
41.74 41.50 42.11 41.88 42.39 41.26 40.97 40.98 40.80 40.09 39.86 39.60 39.25 39.47 39.16 43.52 45.66 45.40 43.03 39.59 39.82 39.54 38.74 39.25 39.84 42.98 42.54 45.47 45.68 45.93 43.89 37.56 36.32 38.16 36.34 35.90 35.79 36.41 37.59 39.00 37.27 34.58 32.78
41.33 41.33 41.42 41.51 40.90 40.18 40.59 40.47 39.66 38.64 38.35 37.83 38.11 38.52 38.33 39.55 44.65 44.24 43.85 39.17 38.14 37.17 37.11 37.29 38.58 40.79 40.34 37.81 41.29 43.09 42.13 43.92 43.79 39.66 37.32 35.61 34.50 34.72 34.45 34.02 34.16 34.05 35.42
40.52 40.63 40.83 40.51 39.71 39.85 39.46 38.54 38.39 38.53 37.67 37.06 37.11 37.02 36.86 40.23 42.90 42.22 42.22 36.42 35.19 35.48 35.78 35.70 35.35 35.43 36.86 38.82 37.65 37.63 37.06 37.61 38.35 38.47 38.01 38.02 37.44 39.22 39.09 38.19 36.45 36.77 38.02
40.03 39.46 39.64 39.75 39.32 39.41 38.38 37.47 37.36 37.04 36.23 35.60 36.04 35.38 34.02 34.54 40.97 41.18 39.29 35.38 35.35 34.94 36.57 35.79 35.94 34.88 40.63 42.30 39.36 38.12 37.71 37.96 42.38 44.08 44.55 44.83 45.16 45.44 44.54 41.83 39.79 38.33 36.91
39.49 39.17 39.41 39.61 39.20 38.36 37.62 36.96 36.74 35.68 35.78 36.22 34.94 33.83 38.64 33.26 41.06 41.02 38.86 35.31 32.51 33.52 33.62 34.83 39.74 38.02 41.23 41.76 38.41 37.34 34.33 34.80 35.95 37.48 39.39 40.64 41.18 40.71 43.69 40.87 38.56 36.36 35.26
40.34 40.00 39.64 38.91 38.19 37.79 36.51 35.40 33.83 33.87 33.89 32.78 33.62 33.52 33.87 35.50 34.66 40.13 40.02 34.59 33.54 33.58 33.73 33.73 34.59 40.35 41.38 42.26 43.29 40.02 39.48 40.57 41.29 39.49 38.25 36.97 37.67 38.88 39.72 39.77 39.15 39.30 36.59
39.67 39.18 37.99 36.47 38.24 38.23 34.62 33.50 33.18 32.55 31.58 31.34 31.53 31.92 33.22 33.34 39.42 39.17 39.71 40.25 40.38 36.66 34.26 34.78 35.05 41.30 42.31 41.82 40.73 41.20 41.79 41.05 36.37 33.77 33.57 33.88 34.85 35.77 37.01 37.30 37.54 37.75 37.59
38.29 36.89 36.41 36.49 35.26 34.08 31.86 31.57 32.12 32.33 31.50 31.17 31.12 30.39 31.76 34.04 33.81 39.74 39.29 40.48 40.39 37.00 36.72 39.15 40.99 40.55 40.29 39.35 39.85 40.09 39.16 35.20 34.23 32.75 32.25 33.70 34.47 34.58 35.36 36.03 36.82 37.19 37.00
36.81 35.70 35.34 33.83 32.72 32.15 33.84 33.38 31.90 31.29 30.39 31.13 30.97 30.53 31.24 32.48 32.28 33.21 34.85 34.91 38.79 38.22 38.81 36.39 37.30 37.97 38.54 37.43 35.50 35.46 35.05 34.44 34.02 33.26 33.15 34.10 35.27 34.98 34.04 34.19 32.64 33.40 33.65
36.18 35.81 34.76 32.96 31.64 31.39 32.06 31.49 31.48 30.72 31.45 29.48 30.08 30.92 30.52 30.31 32.63 37.48 38.20 37.52 37.07 36.67 36.84 34.72 34.07 33.02 31.05 31.87 33.04 33.41 33.73 33.46 32.43 31.70 31.24 31.54 32.43 33.01 33.42 34.55 34.22 33.99 32.07
35.56 34.50 33.39 31.87 31.22 31.43 30.56 29.62 35.49 35.57 35.79 35.66 35.48 33.64 34.01 36.26 37.89 39.26 39.13 38.43 38.14 38.21 34.20 31.28 30.71 31.03 30.93 31.66 32.14 32.11 33.37 34.71 34.49 34.68 33.75 32.12 31.41 31.28 31.66 32.74 33.50 32.15 32.03
35.03 33.95 32.22 33.16 31.17 30.11 29.74 27.91 27.63 32.26 36.20 35.98 35.47 35.22 35.63 36.40 37.32 38.45 37.14 36.89 36.89 36.08 31.94 31.50 31.66 32.61 33.08 33.50 33.65 34.17 33.58 34.55 35.15 33.23 33.28 33.13 33.66 33.42 33.14 31.72 31.94 32.55 31.95
35.58 39.22 30.90 30.31 30.45 29.90 28.82 28.46 28.53 28.17 27.26 28.88 35.26 35.18 35.49 35.83 37.33 37.05 36.30 35.48 32.21 33.40 32.60 32.88 32.69 33.79 33.99 34.19 34.43 34.35 34.56 34.94 34.94 34.61 34.48 32.25 32.66 32.12 31.44 31.18 32.07 31.77 31.58
33.85 32.34 31.78 31.01 30.77 31.38 28.99 28.81 29.02 28.56 28.16 28.39 28.88 32.29 34.43 35.54 36.31 35.78 35.51 32.22 31.48 31.55 32.93 33.26 34.12 34.51 34.62 34.65 34.86 35.02 35.01 34.53 35.45 35.11 34.63 33.14 32.17 31.55 31.40 31.43 31.72 33.83 33.65
33.32 36.93 34.69 31.17 29.31 28.52 28.95 28.84 28.50 27.98 28.03 27.55 27.86 28.22 31.59 33.19 31.40 30.94 32.15 32.59 32.38 32.77 33.80 33.78 34.40 34.94 34.92 34.98 34.97 34.90 34.54 34.95 34.97 34.91 34.75 34.36 34.13 33.78 32.50 32.21 32.58 32.08 31.69
32.17 33.06 35.97 30.76 29.28 29.06 29.32 28.98 28.65 28.20 27.72 27.62 28.01 30.46 33.95 31.76 30.71 30.70 31.49 31.73 33.44 33.71 33.73 34.02 34.18 34.62 35.20 35.45 35.44 35.26 34.94 35.02 35.70 35.92 35.81 35.25 34.98 33.61 34.18 33.74 33.30 33.19 33.05
32.03 31.14 31.04 30.12 30.60 30.14 29.59 29.36 28.66 28.20 27.79 27.69 27.85 30.18 33.20 31.17 30.87 31.13 31.68 32.67 34.32 34.86 35.23 34.90 34.53 34.89 35.34 35.44 35.66 35.59 35.52 35.47 36.16 36.61 35.31 35.67 35.74 35.17 34.82 34.04 33.58 33.31 33.03
32.50 31.32 30.49 30.35 30.56 32.67 28.40 28.63 28.33 28.22 28.11 27.98 27.96 28.36 30.59 30.47 30.72 31.25 32.19 33.06 34.02 34.09 35.07 34.92 34.39 33.95 34.96 35.70 36.82 36.69 35.91 36.12 37.11 36.88 35.09 34.88 35.62 34.86 34.73 34.20 33.91 33.40 33.12
32.43 30.34 29.63 29.86 30.49 28.95 28.52 28.51 28.73 29.86 27.91 28.27 27.96 28.46 30.11 30.71 31.12 31.47 31.87 32.61 34.25 33.65 33.82 34.23 34.46 33.62 34.10 34.62 35.98 36.95 37.46 37.90 37.46 36.49 36.61 35.79 35.27 35.77 35.69 35.21 34.99 34.79 34.18
30.97 29.49 29.69 29.52 29.49 28.67 28.02 28.07 28.27 27.86 28.23 28.52 28.46 29.10 30.18 31.41 31.28 31.41 31.95 32.83 33.34 32.68 32.70 33.41 33.74 34.83 35.00 35.28 35.86 36.54 37.33 37.24 37.16 37.50 37.31 36.92 35.91 35.67 35.58 35.60 35.44 35.36 35.38
29.83 29.46 29.47 29.87 29.41 28.86 28.20 28.27 27.70 27.55 27.13 28.49 28.29 28.99 30.05 29.60 29.61 31.12 31.75 31.98 31.98 31.88 32.39 33.36 33.84 34.17 35.02 35.80 36.33 36.97 37.27 37.47 37.38 37.96 37.30 36.57 35.52 35.58 36.08 36.13 36.22 35.95 35.85

GFSGL_sfc_wetblb_123.txt.gz
Wetbulb
50.97 51.31 51.38 51.64 52.02 52.48 52.69 52.91 52.47 51.96 51.86 50.77 49.88 49.44 48.75 48.31 48.46 47.80 47.45 46.27 45.80 44.92 44.57 44.47 43.76 43.79 43.22 43.62 42.92 42.09 39.76 39.85 37.61 39.10 39.29 38.90 37.77 37.35 38.39 38.67 40.52 38.91 39.41
48.36 47.27 46.86 47.60 48.39 49.06 49.17 50.93 51.23 50.37 50.24 49.75 49.74 49.54 49.49 49.40 49.24 48.64 47.34 46.03 45.20 44.30 44.06 43.23 42.43 43.95 41.29 41.26 39.24 38.01 37.60 37.42 35.96 33.63 34.56 35.80 36.50 36.96 36.84 36.38 39.84 42.14 39.02
45.98 45.40 44.91 44.22 42.83 43.39 44.55 48.89 50.11 50.12 50.08 50.47 50.15 49.69 48.83 47.46 47.06 45.59 45.18 43.53 42.08 41.70 41.62 40.87 39.29 38.79 36.91 36.78 36.63 35.91 36.15 39.21 35.59 33.95 33.81 35.00 35.60 35.78 35.66 36.50 37.47 39.12 41.10
44.36 43.44 41.88 40.53 40.52 41.83 42.80 42.12 41.89 41.81 41.23 40.65 40.87 42.15 42.42 42.05 41.91 41.65 40.86 39.42 39.07 39.58 39.92 39.36 38.58 37.95 36.56 35.69 38.41 37.75 38.59 36.62 35.96 35.45 35.11 35.46 35.62 36.90 36.02 36.17 36.94 35.88 37.03
41.01 40.50 39.61 40.15 40.39 40.94 40.44 40.40 40.37 40.24 39.65 40.21 40.30 40.75 41.30 42.47 43.40 40.03 39.79 38.44 37.74 37.76 38.77 39.42 40.16 43.75 45.98 43.75 40.68 38.37 37.82 36.70 35.71 34.81 34.42 34.88 35.41 35.41 35.14 36.00 35.54 36.21 35.85
39.73 39.27 39.95 39.70 39.42 38.85 38.93 38.49 38.24 37.88 37.77 38.16 37.47 39.16 40.00 43.18 46.14 45.50 40.54 37.10 37.16 36.62 36.45 36.61 37.79 40.91 41.54 43.58 44.11 44.63 42.61 36.82 37.86 37.93 38.05 36.43 33.87 34.68 35.39 35.59 35.84 33.88 31.54
38.98 39.14 39.26 39.00 38.49 38.12 38.01 37.58 36.69 35.61 35.84 35.76 36.30 38.06 37.88 39.33 44.76 44.28 43.39 35.90 34.70 33.70 33.64 34.03 36.44 38.62 38.12 36.18 40.78 42.22 41.34 43.31 43.02 37.76 33.38 33.13 33.18 34.45 34.02 32.45 31.84 31.75 32.94
38.16 38.23 38.12 37.82 37.39 37.27 36.64 35.90 35.45 35.25 34.80 34.65 34.52 36.06 36.76 39.73 43.01 42.82 41.84 34.36 33.51 33.63 33.92 34.41 34.04 33.92 35.52 38.47 36.46 36.11 36.39 36.55 37.82 38.70 36.53 36.29 36.07 36.67 37.68 40.05 39.57 38.46 37.84
37.31 36.98 37.33 37.76 37.35 37.00 35.72 34.95 34.72 34.01 33.11 32.84 33.29 33.16 34.25 34.68 42.12 42.09 37.79 34.13 33.28 32.69 34.26 33.95 34.10 33.17 39.56 41.64 36.47 36.64 35.29 35.65 40.95 43.49 43.65 44.12 44.69 44.73 43.28 39.72 37.64 37.86 37.27
36.72 36.94 37.56 37.99 37.37 36.08 35.39 34.64 33.47 32.97 33.49 33.75 32.54 32.19 38.32 32.53 41.29 40.78 36.87 33.72 31.11 32.56 32.71 33.77 39.10 37.53 41.02 41.73 39.09 37.78 36.61 36.84 36.74 38.25 39.99 40.83 40.46 38.80 42.86 38.55 37.87 36.34 36.66
38.18 38.06 37.60 37.11 36.42 35.24 34.00 32.41 31.52 31.52 31.36 30.79 31.48 31.06 31.69 33.14 34.02 40.11 40.11 33.85 34.67 35.06 33.02 33.17 34.01 40.50 42.66 42.58 42.19 37.75 37.59 39.88 37.38 36.97 36.50 34.53 35.13 35.76 37.03 38.14 38.26 37.08 35.86
37.99 37.29 35.94 35.49 37.84 35.77 32.27 30.73 30.88 30.65 29.39 29.14 29.58 30.05 31.40 31.86 39.10 40.36 40.26 40.29 40.01 34.61 33.49 34.10 36.51 40.97 40.62 40.46 39.08 40.99 40.75 37.46 33.66 31.93 31.71 33.00 33.58 34.20 33.28 34.37 35.49 36.95 38.16
36.30 34.78 34.47 34.02 32.95 32.02 30.39 29.80 30.31 30.03 29.53 29.39 29.53 29.07 30.31 31.95 32.37 39.04 39.30 40.19 40.00 37.90 36.03 38.89 38.83 38.84 39.11 36.88 38.46 38.28 36.81 32.05 32.58 32.57 31.13 32.26 33.93 34.99 35.67 35.45 34.51 35.36 34.96
34.75 33.53 32.59 31.34 30.33 30.54 31.94 31.34 29.89 29.13 28.64 29.49 29.85 28.75 29.49 30.54 30.85 32.49 34.09 35.12 38.56 36.22 36.90 33.38 36.37 36.19 36.56 35.14 33.77 33.79 33.82 34.16 34.02 31.52 31.24 31.31 31.97 32.03 31.71 31.90 31.05 31.94 31.93
34.92 33.59 32.12 32.05 29.56 29.30 30.58 29.98 30.36 28.91 29.74 28.31 28.69 29.55 29.14 28.86 31.84 37.52 38.75 37.03 35.55 36.40 35.47 33.89 31.28 30.83 31.66 32.25 33.03 33.74 34.29 33.86 34.04 33.91 33.07 31.98 31.83 31.56 30.88 31.58 31.34 30.93 31.79
35.15 33.77 31.91 29.86 29.12 29.46 29.28 28.19 36.71 35.79 36.99 36.83 36.52 33.17 32.48 35.73 37.56 39.26 38.30 37.96 37.60 37.91 33.46 31.20 30.58 31.35 31.45 32.62 33.10 33.57 34.90 35.62 35.01 34.85 33.85 32.95 32.64 32.79 31.38 32.21 31.34 30.11 31.00
35.80 33.39 33.28 31.43 29.49 28.51 28.09 27.52 26.67 31.83 36.81 36.75 36.17 35.89 35.82 35.95 37.23 38.29 37.10 36.91 36.18 35.51 31.72 31.40 32.04 31.20 30.99 33.62 33.95 34.45 34.14 35.38 36.26 35.46 34.63 34.38 33.21 32.62 31.69 30.93 31.09 31.12 30.75
36.10 38.58 32.05 29.94 29.79 29.04 27.81 27.50 27.39 27.52 27.18 28.07 35.50 35.05 35.41 35.70 36.98 36.86 36.43 34.86 31.93 32.78 32.38 32.23 31.87 32.88 34.05 34.39 34.57 34.50 34.83 35.21 35.26 35.28 35.28 35.14 34.15 33.24 32.48 31.93 31.49 30.53 30.18
36.30 33.69 31.43 30.13 29.96 30.34 28.16 28.10 28.44 27.60 26.97 27.78 28.03 31.69 33.20 35.05 35.71 35.44 35.12 32.14 31.36 31.36 32.43 33.16 33.95 34.04 34.96 34.85 35.04 35.21 35.17 34.93 35.78 35.58 34.73 34.77 35.03 34.06 33.02 32.90 32.13 33.64 33.81
34.99 36.55 33.97 30.96 30.71 28.69 28.34 28.27 27.84 27.20 26.74 26.52 26.70 27.16 28.47 33.01 31.51 30.78 32.00 32.28 32.69 32.95 33.73 33.55 34.13 34.65 34.79 35.06 35.26 35.32 35.03 34.99 35.08 35.40 35.66 35.18 35.06 35.05 33.52 33.68 33.45 32.40 32.29
34.83 35.52 35.60 30.61 28.96 28.72 28.76 28.41 28.13 27.55 27.30 26.42 26.84 29.17 33.72 31.50 30.37 30.56 31.13 31.37 29.08 33.64 33.55 33.92 34.14 34.42 34.92 35.10 35.08 35.06 35.02 35.30 35.23 35.52 34.53 35.93 35.03 34.19 34.52 34.55 34.53 34.17 33.49
34.10 33.98 32.26 31.04 29.71 29.80 29.20 29.09 28.26 27.88 27.15 26.44 26.50 29.04 32.80 30.79 30.72 31.01 31.56 32.30 33.10 34.19 34.72 34.43 33.70 33.64 34.15 34.67 34.64 34.18 33.77 34.14 35.06 35.87 35.84 35.61 34.43 34.19 34.75 34.34 34.25 34.14 33.64
33.35 32.14 31.20 30.20 30.33 32.55 30.37 28.61 27.94 27.47 27.17 26.83 26.77 27.47 28.31 30.13 30.67 31.14 31.85 32.44 33.20 33.97 34.62 34.20 33.28 33.07 34.25 34.44 35.04 35.08 34.21 34.34 35.73 36.58 35.43 34.26 34.43 34.26 34.84 34.48 34.56 34.36 33.47
32.44 31.71 30.33 29.94 30.26 29.06 27.78 27.88 28.24 29.60 27.33 27.18 26.88 27.48 27.20 29.75 31.17 31.51 31.80 32.17 32.79 33.65 30.89 29.95 31.82 32.96 33.79 34.62 35.22 35.93 36.35 36.90 37.35 36.41 35.99 35.27 34.67 34.88 35.27 34.70 34.59 34.84 34.86
31.96 30.83 30.29 29.93 31.00 28.28 29.05 28.55 27.79 26.94 27.15 27.45 27.53 28.02 27.75 30.97 30.75 30.97 31.74 32.46 32.51 32.48 29.22 31.73 32.39 33.22 34.14 34.37 35.10 35.86 36.82 36.86 36.79 37.11 36.86 36.50 35.67 35.16 34.84 34.51 34.82 35.14 35.54
31.00 30.07 29.54 29.16 28.30 27.81 27.06 27.10 26.13 26.05 26.01 27.37 27.70 27.34 27.07 29.41 29.88 30.52 30.50 31.05 31.17 29.34 29.50 31.69 32.39 32.90 34.03 35.10 35.85 36.27 36.36 36.34 36.11 36.63 35.55 34.43 32.71 32.86 33.79 34.10 34.56 34.92 35.35